contact:dominique.lefevre@mio.osupytheas.fr, maurice.libes@osupytheas.fr, didier.mallarino@osupytheas.fr
Project:EMSO http://www.emso-fr.org/EMSO-France
Depth: 2436.0 m
Title:EMSO Ligure Ouest : Data MII capteur MICROCAT
DateTime_Computer,Latitude,Longitude,Temperature,Conductivity,Pressure,DateTime_Instrument
DateTime_Computer,Latitude,Longitude,degC,S m-1,dbar,DateTime_Instrument
2022-01-22T00:00:59Z,42.805,6.029,13.3010,4.60042,2470.077,2022-1-22T02:02:31Z
2022-01-22T00:04:02Z,42.805,6.029,13.3011,4.60058,2470.04,2022-1-22T02:05:34Z
2022-01-22T00:07:05Z,42.805,6.029,13.3011,4.60047,2470.063,2022-1-22T02:08:37Z
2022-01-22T00:10:08Z,42.805,6.029,13.3011,4.60051,2470.063,2022-1-22T02:11:40Z
2022-01-22T00:13:12Z,42.805,6.029,13.3008,4.60046,2470.017,2022-1-22T02:14:43Z
2022-01-22T00:16:15Z,42.805,6.029,13.3018,4.60049,2470.04,2022-1-22T02:17:46Z
2022-01-22T00:19:18Z,42.805,6.029,13.3011,4.60048,2470.04,2022-1-22T02:20:49Z
2022-01-22T00:22:21Z,42.805,6.029,13.3016,4.60049,2470.017,2022-1-22T02:23:52Z
2022-01-22T00:25:24Z,42.805,6.029,13.3017,4.60056,2470.053,2022-1-22T02:26:56Z
2022-01-22T00:28:27Z,42.805,6.029,13.3004,4.60041,2470.03,2022-1-22T02:29:59Z
2022-01-22T00:31:30Z,42.805,6.029,13.3004,4.60046,2470.017,2022-1-22T02:33:02Z
2022-01-22T00:34:33Z,42.805,6.029,13.3004,4.60041,2470.04,2022-1-22T02:36:05Z
2022-01-22T00:37:37Z,42.805,6.029,13.3011,4.60044,2470.04,2022-1-22T02:39:08Z
2022-01-22T00:40:40Z,42.805,6.029,13.3009,4.60046,2470.017,2022-1-22T02:42:11Z
2022-01-22T00:43:43Z,42.805,6.029,13.3018,4.60043,2470.063,2022-1-22T02:45:14Z
2022-01-22T00:46:46Z,42.805,6.029,13.3019,4.60049,2469.993,2022-1-22T02:48:17Z
2022-01-22T00:49:49Z,42.805,6.029,13.3013,4.60054,2469.97,2022-1-22T02:51:21Z
2022-01-22T00:52:52Z,42.805,6.029,13.3005,4.60036,2470.04,2022-1-22T02:54:24Z
2022-01-22T00:55:55Z,42.805,6.029,13.3015,4.60056,2470.007,2022-1-22T02:57:27Z
2022-01-22T00:58:58Z,42.805,6.029,13.3016,4.60055,2470.053,2022-1-22T03:00:30Z
2022-01-22T01:02:01Z,42.805,6.029,13.3009,4.60046,2469.993,2022-1-22T03:03:33Z
2022-01-22T01:05:05Z,42.805,6.029,13.3011,4.60055,2470.007,2022-1-22T03:06:36Z
2022-01-22T01:08:08Z,42.805,6.029,13.3011,4.60052,2470.017,2022-1-22T03:09:39Z
2022-01-22T01:11:11Z,42.805,6.029,13.3005,4.60041,2469.993,2022-1-22T03:12:42Z
2022-01-22T01:14:14Z,42.805,6.029,13.3018,4.60058,2470.03,2022-1-22T03:15:46Z
2022-01-22T01:17:17Z,42.805,6.029,13.3008,4.60043,2469.993,2022-1-22T03:18:49Z
2022-01-22T01:20:20Z,42.805,6.029,13.3004,4.60037,2469.984,2022-1-22T03:21:52Z
2022-01-22T01:23:23Z,42.805,6.029,13.3008,4.60034,2469.97,2022-1-22T03:24:55Z
2022-01-22T01:26:26Z,42.805,6.029,13.3007,4.60039,2469.96,2022-1-22T03:27:58Z
2022-01-22T01:29:30Z,42.805,6.029,13.3008,4.60035,2469.993,2022-1-22T03:31:01Z
2022-01-22T01:32:33Z,42.805,6.029,13.3008,4.60072,2469.97,2022-1-22T03:34:04Z
2022-01-22T01:35:36Z,42.805,6.029,13.3022,4.60064,2469.993,2022-1-22T03:37:07Z
2022-01-22T01:38:39Z,42.805,6.029,13.3011,4.60050,2469.984,2022-1-22T03:40:11Z
2022-01-22T01:41:42Z,42.805,6.029,13.3019,4.60062,2469.97,2022-1-22T03:43:14Z
2022-01-22T01:44:45Z,42.805,6.029,13.3020,4.60061,2469.984,2022-1-22T03:46:17Z
2022-01-22T01:47:48Z,42.805,6.029,13.3014,4.60050,2470.007,2022-1-22T03:49:20Z
2022-01-22T01:50:51Z,42.805,6.029,13.3010,4.60061,2469.97,2022-1-22T03:52:23Z
2022-01-22T01:53:55Z,42.805,6.029,13.3015,4.60063,2469.947,2022-1-22T03:55:26Z
2022-01-22T01:56:58Z,42.805,6.029,13.3014,4.60049,2469.947,2022-1-22T03:58:29Z
2022-01-22T02:00:01Z,42.805,6.029,13.3014,4.60051,2469.97,2022-1-22T04:01:32Z
2022-01-22T02:03:04Z,42.805,6.029,13.3016,4.60062,2469.984,2022-1-22T04:04:36Z
2022-01-22T02:06:07Z,42.805,6.029,13.3011,4.60064,2469.937,2022-1-22T04:07:39Z
2022-01-22T02:09:10Z,42.805,6.029,13.3011,4.60055,2469.97,2022-1-22T04:10:42Z
2022-01-22T02:12:13Z,42.805,6.029,13.3011,4.60057,2469.96,2022-1-22T04:13:45Z
2022-01-22T02:15:16Z,42.805,6.029,13.3012,4.60060,2469.9,2022-1-22T04:16:48Z
2022-01-22T02:18:20Z,42.805,6.029,13.3011,4.60064,2469.923,2022-1-22T04:19:51Z
2022-01-22T02:21:23Z,42.805,6.029,13.3018,4.60057,2469.937,2022-1-22T04:22:54Z
2022-01-22T02:24:26Z,42.805,6.029,13.3006,4.60060,2469.923,2022-1-22T04:25:57Z
2022-01-22T02:27:29Z,42.805,6.029,13.3011,4.60042,2469.923,2022-1-22T04:29:01Z
2022-01-22T02:30:32Z,42.805,6.029,13.3012,4.60052,2469.923,2022-1-22T04:32:04Z
2022-01-22T02:33:35Z,42.805,6.029,13.3006,4.60037,2469.923,2022-1-22T04:35:07Z
2022-01-22T02:36:38Z,42.805,6.029,13.3008,4.60037,2469.947,2022-1-22T04:38:10Z
2022-01-22T02:39:41Z,42.805,6.029,13.3011,4.60049,2469.96,2022-1-22T04:41:13Z
2022-01-22T02:42:45Z,42.805,6.029,13.3013,4.60053,2469.947,2022-1-22T04:44:16Z
2022-01-22T02:45:48Z,42.805,6.029,13.3010,4.60043,2469.96,2022-1-22T04:47:19Z
2022-01-22T02:48:51Z,42.805,6.029,13.3026,4.60054,2469.96,2022-1-22T04:50:22Z
2022-01-22T02:51:54Z,42.805,6.029,13.3020,4.60053,2469.947,2022-1-22T04:53:25Z
2022-01-22T02:54:57Z,42.805,6.029,13.3014,4.60063,2469.96,2022-1-22T04:56:29Z
2022-01-22T02:58:00Z,42.805,6.029,13.3024,4.60076,2469.89,2022-1-22T04:59:32Z
2022-01-22T03:01:03Z,42.805,6.029,13.3011,4.60079,2469.937,2022-1-22T05:02:35Z
2022-01-22T03:04:06Z,42.805,6.029,13.3011,4.60057,2469.947,2022-1-22T05:05:38Z
2022-01-22T03:07:10Z,42.805,6.029,13.3014,4.60067,2469.9,2022-1-22T05:08:41Z
2022-01-22T03:10:13Z,42.805,6.029,13.3014,4.60066,2469.9,2022-1-22T05:11:44Z
2022-01-22T03:13:16Z,42.805,6.029,13.3015,4.60067,2469.876,2022-1-22T05:14:47Z
2022-01-22T03:16:19Z,42.805,6.029,13.3017,4.60052,2469.923,2022-1-22T05:17:50Z
2022-01-22T03:19:22Z,42.805,6.029,13.3014,4.60064,2469.923,2022-1-22T05:20:54Z
2022-01-22T03:22:25Z,42.805,6.029,13.3006,4.60045,2469.89,2022-1-22T05:23:57Z
2022-01-22T03:25:28Z,42.805,6.029,13.3026,4.60068,2469.947,2022-1-22T05:27:00Z
2022-01-22T03:28:31Z,42.805,6.029,13.3024,4.60071,2469.937,2022-1-22T05:30:03Z
2022-01-22T03:31:35Z,42.805,6.029,13.3015,4.60063,2469.923,2022-1-22T05:33:06Z
2022-01-22T03:34:38Z,42.805,6.029,13.3015,4.60047,2469.923,2022-1-22T05:36:09Z
2022-01-22T03:37:41Z,42.805,6.029,13.3009,4.60072,2469.923,2022-1-22T05:39:12Z
2022-01-22T03:40:44Z,42.805,6.029,13.3016,4.60065,2469.9,2022-1-22T05:42:15Z
2022-01-22T03:43:47Z,42.805,6.029,13.3019,4.60067,2469.923,2022-1-22T05:45:19Z
2022-01-22T03:46:50Z,42.805,6.029,13.3008,4.60047,2469.937,2022-1-22T05:48:22Z
2022-01-22T03:49:53Z,42.805,6.029,13.3009,4.60038,2469.923,2022-1-22T05:51:25Z
2022-01-22T03:52:56Z,42.805,6.029,13.3013,4.60066,2469.947,2022-1-22T05:54:28Z
2022-01-22T03:55:59Z,42.805,6.029,13.3009,4.60041,2469.937,2022-1-22T05:57:31Z
2022-01-22T03:59:03Z,42.805,6.029,13.3013,4.60066,2469.9,2022-1-22T06:00:34Z
2022-01-22T04:02:06Z,42.805,6.029,13.3015,4.60064,2469.947,2022-1-22T06:03:37Z
2022-01-22T04:05:09Z,42.805,6.029,13.3010,4.60070,2469.923,2022-1-22T06:06:40Z
2022-01-22T04:08:12Z,42.805,6.029,13.3006,4.60057,2469.937,2022-1-22T06:09:44Z
2022-01-22T04:11:15Z,42.805,6.029,13.3022,4.60059,2469.947,2022-1-22T06:12:47Z
2022-01-22T04:14:18Z,42.805,6.029,13.3014,4.60072,2469.947,2022-1-22T06:15:50Z
2022-01-22T04:17:21Z,42.805,6.029,13.3008,4.60054,2469.96,2022-1-22T06:18:53Z
2022-01-22T04:20:24Z,42.805,6.029,13.3021,4.60065,2469.914,2022-1-22T06:21:56Z
2022-01-22T04:23:28Z,42.805,6.029,13.3022,4.60070,2469.937,2022-1-22T06:24:59Z
2022-01-22T04:26:31Z,42.805,6.029,13.3010,4.60045,2469.96,2022-1-22T06:28:02Z
2022-01-22T04:29:34Z,42.805,6.029,13.3011,4.60050,2469.947,2022-1-22T06:31:05Z
2022-01-22T04:32:37Z,42.805,6.029,13.3023,4.60074,2469.937,2022-1-22T06:34:09Z
2022-01-22T04:35:40Z,42.805,6.029,13.3019,4.60069,2469.937,2022-1-22T06:37:12Z
2022-01-22T04:38:43Z,42.805,6.029,13.3016,4.60070,2469.9,2022-1-22T06:40:15Z
2022-01-22T04:41:46Z,42.805,6.029,13.3013,4.60072,2469.923,2022-1-22T06:43:18Z
2022-01-22T04:44:49Z,42.805,6.029,13.3010,4.60062,2469.937,2022-1-22T06:46:21Z
2022-01-22T04:47:53Z,42.805,6.029,13.3014,4.60054,2469.914,2022-1-22T06:49:24Z
2022-01-22T04:50:56Z,42.805,6.029,13.3018,4.60073,2469.947,2022-1-22T06:52:27Z
2022-01-22T04:53:59Z,42.805,6.029,13.3019,4.60053,2469.914,2022-1-22T06:55:30Z
2022-01-22T04:57:02Z,42.805,6.029,13.3018,4.60055,2469.937,2022-1-22T06:58:34Z
2022-01-22T05:00:05Z,42.805,6.029,13.3011,4.60056,2469.947,2022-1-22T07:01:37Z
2022-01-22T05:03:08Z,42.805,6.029,13.3007,4.60053,2469.937,2022-1-22T07:04:40Z
2022-01-22T05:06:11Z,42.805,6.029,13.3020,4.60061,2469.923,2022-1-22T07:07:43Z
2022-01-22T05:09:14Z,42.805,6.029,13.3010,4.60061,2469.97,2022-1-22T07:10:46Z
2022-01-22T05:12:18Z,42.805,6.029,13.3015,4.60065,2469.97,2022-1-22T07:13:49Z
2022-01-22T05:15:21Z,42.805,6.029,13.3014,4.60050,2469.97,2022-1-22T07:16:52Z
2022-01-22T05:18:24Z,42.805,6.029,13.3014,4.60056,2469.96,2022-1-22T07:19:55Z
2022-01-22T05:21:27Z,42.805,6.029,13.3014,4.60058,2469.97,2022-1-22T07:22:59Z
2022-01-22T05:24:30Z,42.805,6.029,13.3015,4.60059,2469.97,2022-1-22T07:26:02Z
2022-01-22T05:27:33Z,42.805,6.029,13.3016,4.60069,2469.947,2022-1-22T07:29:05Z
2022-01-22T05:30:36Z,42.805,6.029,13.3013,4.60072,2469.97,2022-1-22T07:32:08Z
2022-01-22T05:33:39Z,42.805,6.029,13.3016,4.60059,2469.97,2022-1-22T07:35:11Z
2022-01-22T05:36:43Z,42.805,6.029,13.3010,4.60070,2469.993,2022-1-22T07:38:14Z
2022-01-22T05:39:46Z,42.805,6.029,13.3009,4.60051,2469.993,2022-1-22T07:41:17Z
2022-01-22T05:42:49Z,42.805,6.029,13.3010,4.60064,2470.007,2022-1-22T07:44:20Z
2022-01-22T05:45:52Z,42.805,6.029,13.3015,4.60064,2469.97,2022-1-22T07:47:24Z
2022-01-22T05:48:55Z,42.805,6.029,13.3010,4.60057,2469.97,2022-1-22T07:50:27Z
2022-01-22T05:51:58Z,42.805,6.029,13.3023,4.60066,2470.007,2022-1-22T07:53:30Z
2022-01-22T05:55:01Z,42.805,6.029,13.3021,4.60064,2469.993,2022-1-22T07:56:33Z
2022-01-22T05:58:04Z,42.805,6.029,13.3011,4.60043,2469.993,2022-1-22T07:59:36Z
2022-01-22T06:01:08Z,42.805,6.029,13.3024,4.60068,2470.017,2022-1-22T08:02:39Z
2022-01-22T06:04:11Z,42.805,6.029,13.3017,4.60057,2470.007,2022-1-22T08:05:42Z
2022-01-22T06:07:14Z,42.805,6.029,13.3010,4.60060,2470.007,2022-1-22T08:08:45Z
2022-01-22T06:10:17Z,42.805,6.029,13.3010,4.60046,2470.017,2022-1-22T08:11:48Z
2022-01-22T06:13:20Z,42.805,6.029,13.3001,4.60046,2470.017,2022-1-22T08:14:52Z
2022-01-22T06:16:23Z,42.805,6.029,13.3008,4.60069,2469.993,2022-1-22T08:17:55Z
2022-01-22T06:19:26Z,42.805,6.029,13.3015,4.60046,2470.007,2022-1-22T08:20:58Z
2022-01-22T06:22:29Z,42.805,6.029,13.3015,4.60046,2469.97,2022-1-22T08:24:01Z
2022-01-22T06:25:33Z,42.805,6.029,13.3015,4.60039,2470.04,2022-1-22T08:27:04Z
2022-01-22T06:28:36Z,42.805,6.029,13.3002,4.60036,2470.03,2022-1-22T08:30:07Z
2022-01-22T06:31:39Z,42.805,6.029,13.3015,4.60056,2470.04,2022-1-22T08:33:10Z
2022-01-22T06:34:42Z,42.805,6.029,13.3015,4.60065,2470.063,2022-1-22T08:36:13Z
2022-01-22T06:37:45Z,42.805,6.029,13.3002,4.60047,2470.053,2022-1-22T08:39:17Z
2022-01-22T06:40:48Z,42.805,6.029,13.3019,4.60047,2470.04,2022-1-22T08:42:20Z
2022-01-22T06:43:51Z,42.805,6.029,13.3021,4.60066,2470.063,2022-1-22T08:45:23Z
2022-01-22T06:46:54Z,42.805,6.029,13.3014,4.60075,2470.1,2022-1-22T08:48:26Z
2022-01-22T06:49:57Z,42.805,6.029,13.3023,4.60068,2470.11,2022-1-22T08:51:29Z
2022-01-22T06:53:01Z,42.805,6.029,13.3019,4.60064,2470.077,2022-1-22T08:54:32Z
2022-01-22T06:56:04Z,42.805,6.029,13.3007,4.60059,2470.1,2022-1-22T08:57:35Z
2022-01-22T06:59:07Z,42.805,6.029,13.3025,4.60062,2470.124,2022-1-22T09:00:38Z
2022-01-22T07:02:10Z,42.805,6.029,13.3019,4.60067,2470.077,2022-1-22T09:03:42Z
2022-01-22T07:05:13Z,42.805,6.029,13.3008,4.60057,2470.077,2022-1-22T09:06:45Z
2022-01-22T07:08:16Z,42.805,6.029,13.3021,4.60057,2470.087,2022-1-22T09:09:48Z
2022-01-22T07:11:19Z,42.805,6.029,13.3026,4.60074,2470.077,2022-1-22T09:12:51Z
2022-01-22T07:14:22Z,42.805,6.029,13.3014,4.60071,2470.1,2022-1-22T09:15:54Z
2022-01-22T07:17:26Z,42.805,6.029,13.3020,4.60058,2470.11,2022-1-22T09:18:57Z
2022-01-22T07:20:29Z,42.805,6.029,13.3008,4.60053,2470.11,2022-1-22T09:22:00Z
2022-01-22T07:23:32Z,42.805,6.029,13.3021,4.60057,2470.133,2022-1-22T09:25:03Z
2022-01-22T07:26:35Z,42.805,6.029,13.3030,4.60069,2470.077,2022-1-22T09:28:07Z
2022-01-22T07:29:38Z,42.805,6.029,13.3006,4.60053,2470.11,2022-1-22T09:31:10Z
2022-01-22T07:32:41Z,42.805,6.029,13.3014,4.60049,2470.124,2022-1-22T09:34:13Z
2022-01-22T07:35:44Z,42.805,6.029,13.3009,4.60049,2470.124,2022-1-22T09:37:16Z
2022-01-22T07:38:47Z,42.805,6.029,13.3014,4.60057,2470.1,2022-1-22T09:40:19Z
2022-01-22T07:41:51Z,42.805,6.029,13.3011,4.60066,2470.1,2022-1-22T09:43:22Z
2022-01-22T07:44:54Z,42.805,6.029,13.3018,4.60064,2470.11,2022-1-22T09:46:25Z
2022-01-22T07:47:57Z,42.805,6.029,13.3011,4.60068,2470.11,2022-1-22T09:49:28Z
2022-01-22T07:51:00Z,42.805,6.029,13.3007,4.60070,2470.077,2022-1-22T09:52:32Z
2022-01-22T07:54:03Z,42.805,6.029,13.3009,4.60054,2470.087,2022-1-22T09:55:35Z
2022-01-22T07:57:06Z,42.805,6.029,13.3021,4.60066,2470.073,2022-1-22T09:58:38Z
2022-01-22T08:00:09Z,42.805,6.029,13.3012,4.60065,2470.087,2022-1-22T10:01:41Z
2022-01-22T08:03:12Z,42.805,6.029,13.3022,4.60067,2470.087,2022-1-22T10:04:44Z
2022-01-22T08:06:16Z,42.805,6.029,13.3018,4.60057,2470.124,2022-1-22T10:07:47Z
2022-01-22T08:09:19Z,42.805,6.029,13.3014,4.60067,2470.087,2022-1-22T10:10:50Z
2022-01-22T08:12:22Z,42.805,6.029,13.3018,4.60064,2470.087,2022-1-22T10:13:53Z
2022-01-22T08:15:25Z,42.805,6.029,13.3004,4.60052,2470.1,2022-1-22T10:16:57Z
2022-01-22T08:18:28Z,42.805,6.029,13.3009,4.60057,2470.096,2022-1-22T10:20:00Z
2022-01-22T08:21:31Z,42.805,6.029,13.3026,4.60054,2470.087,2022-1-22T10:23:03Z
2022-01-22T08:24:34Z,42.805,6.029,13.3017,4.60066,2470.11,2022-1-22T10:26:06Z
2022-01-22T08:27:37Z,42.805,6.029,13.3012,4.60075,2470.1,2022-1-22T10:29:09Z
2022-01-22T08:30:41Z,42.805,6.029,13.3008,4.60067,2470.11,2022-1-22T10:32:12Z
2022-01-22T08:33:44Z,42.805,6.029,13.3026,4.60069,2470.087,2022-1-22T10:35:15Z
2022-01-22T08:36:47Z,42.805,6.029,13.3009,4.60059,2470.124,2022-1-22T10:38:18Z
2022-01-22T08:39:50Z,42.805,6.029,13.3012,4.60049,2470.171,2022-1-22T10:41:22Z
2022-01-22T08:42:53Z,42.805,6.029,13.3017,4.60077,2470.147,2022-1-22T10:44:25Z
2022-01-22T08:45:56Z,42.805,6.029,13.3019,4.60057,2470.11,2022-1-22T10:47:28Z
2022-01-22T08:48:59Z,42.805,6.029,13.3011,4.60044,2470.124,2022-1-22T10:50:31Z
2022-01-22T08:52:03Z,42.805,6.029,13.3010,4.60063,2470.133,2022-1-22T10:53:34Z
2022-01-22T08:55:06Z,42.805,6.029,13.3016,4.60074,2470.133,2022-1-22T10:56:37Z
2022-01-22T08:58:09Z,42.805,6.029,13.3023,4.60057,2470.11,2022-1-22T10:59:40Z
2022-01-22T09:01:12Z,42.805,6.029,13.3019,4.60070,2470.133,2022-1-22T11:02:43Z
2022-01-22T09:04:15Z,42.805,6.029,13.3011,4.60064,2470.171,2022-1-22T11:05:47Z
2022-01-22T09:07:18Z,42.805,6.029,13.3026,4.60074,2470.171,2022-1-22T11:08:50Z
2022-01-22T09:10:21Z,42.805,6.029,13.3010,4.60048,2470.147,2022-1-22T11:11:53Z
2022-01-22T09:13:24Z,42.805,6.029,13.3010,4.60044,2470.147,2022-1-22T11:14:56Z
2022-01-22T09:16:28Z,42.805,6.029,13.3015,4.60056,2470.124,2022-1-22T11:17:59Z
2022-01-22T09:19:31Z,42.805,6.029,13.3015,4.60049,2470.156,2022-1-22T11:21:02Z
2022-01-22T09:22:34Z,42.805,6.029,13.3012,4.60060,2470.133,2022-1-22T11:24:05Z
2022-01-22T09:25:37Z,42.805,6.029,13.3026,4.60060,2470.133,2022-1-22T11:27:09Z
2022-01-22T09:28:40Z,42.805,6.029,13.3013,4.60067,2470.11,2022-1-22T11:30:12Z
2022-01-22T09:31:43Z,42.805,6.029,13.3012,4.60042,2470.124,2022-1-22T11:33:15Z
2022-01-22T09:34:46Z,42.805,6.029,13.3017,4.60057,2470.171,2022-1-22T11:36:18Z
2022-01-22T09:37:49Z,42.805,6.029,13.3012,4.60069,2470.156,2022-1-22T11:39:21Z
2022-01-22T09:40:53Z,42.805,6.029,13.3015,4.60053,2470.171,2022-1-22T11:42:24Z
2022-01-22T09:43:56Z,42.805,6.029,13.3021,4.60057,2470.133,2022-1-22T11:45:27Z
2022-01-22T09:46:59Z,42.805,6.029,13.3021,4.60068,2470.147,2022-1-22T11:48:30Z
2022-01-22T09:50:02Z,42.805,6.029,13.3011,4.60063,2470.156,2022-1-22T11:51:34Z
2022-01-22T09:53:05Z,42.805,6.029,13.3014,4.60058,2470.156,2022-1-22T11:54:37Z
2022-01-22T09:56:08Z,42.805,6.029,13.3002,4.60052,2470.156,2022-1-22T11:57:40Z
2022-01-22T09:59:11Z,42.805,6.029,13.3012,4.60059,2470.156,2022-1-22T12:00:43Z
2022-01-22T10:02:14Z,42.805,6.029,13.3010,4.60049,2470.18,2022-1-22T12:03:46Z
2022-01-22T10:05:18Z,42.805,6.029,13.3009,4.60056,2470.156,2022-1-22T12:06:49Z
2022-01-22T10:08:21Z,42.805,6.029,13.3009,4.60059,2470.194,2022-1-22T12:09:52Z
2022-01-22T10:11:24Z,42.805,6.029,13.3015,4.60070,2470.194,2022-1-22T12:12:55Z
2022-01-22T10:14:27Z,42.805,6.029,13.3021,4.60065,2470.133,2022-1-22T12:15:59Z
2022-01-22T10:17:30Z,42.805,6.029,13.3024,4.60059,2470.24,2022-1-22T12:19:02Z
2022-01-22T10:20:33Z,42.805,6.029,13.3004,4.60057,2470.18,2022-1-22T12:22:05Z
2022-01-22T10:23:36Z,42.805,6.029,13.3007,4.60045,2470.227,2022-1-22T12:25:08Z
2022-01-22T10:26:39Z,42.805,6.029,13.3009,4.60057,2470.171,2022-1-22T12:28:11Z
2022-01-22T10:29:43Z,42.805,6.029,13.3007,4.60044,2470.203,2022-1-22T12:31:14Z
2022-01-22T10:32:46Z,42.805,6.029,13.3012,4.60042,2470.227,2022-1-22T12:34:17Z
2022-01-22T10:35:49Z,42.805,6.029,13.3023,4.60067,2470.194,2022-1-22T12:37:20Z
2022-01-22T10:38:52Z,42.805,6.029,13.3011,4.60041,2470.18,2022-1-22T12:40:24Z
2022-01-22T10:41:55Z,42.805,6.029,13.3011,4.60062,2470.171,2022-1-22T12:43:27Z
2022-01-22T10:44:58Z,42.805,6.029,13.3012,4.60057,2470.18,2022-1-22T12:46:30Z
2022-01-22T10:48:01Z,42.805,6.029,13.3005,4.60044,2470.227,2022-1-22T12:49:33Z
2022-01-22T10:51:04Z,42.805,6.029,13.3012,4.60059,2470.156,2022-1-22T12:52:36Z
2022-01-22T10:54:08Z,42.805,6.029,13.3019,4.60051,2470.171,2022-1-22T12:55:39Z
2022-01-22T10:57:11Z,42.805,6.029,13.3006,4.60044,2470.156,2022-1-22T12:58:42Z
2022-01-22T11:00:14Z,42.805,6.029,13.3009,4.60046,2470.217,2022-1-22T13:01:46Z
2022-01-22T11:03:17Z,42.805,6.029,13.3010,4.60044,2470.156,2022-1-22T13:04:49Z
2022-01-22T11:06:20Z,42.805,6.029,13.3011,4.60043,2470.171,2022-1-22T13:07:52Z
2022-01-22T11:09:23Z,42.805,6.029,13.3006,4.60041,2470.171,2022-1-22T13:10:55Z
2022-01-22T11:12:26Z,42.805,6.029,13.3013,4.60051,2470.133,2022-1-22T13:13:58Z
2022-01-22T11:15:30Z,42.805,6.029,13.3016,4.60053,2470.133,2022-1-22T13:17:01Z
2022-01-22T11:18:33Z,42.805,6.029,13.3008,4.60045,2470.133,2022-1-22T13:20:04Z
2022-01-22T11:21:36Z,42.805,6.029,13.3011,4.60047,2470.156,2022-1-22T13:23:07Z
2022-01-22T11:24:39Z,42.805,6.029,13.3014,4.60050,2470.11,2022-1-22T13:26:11Z
2022-01-22T11:27:42Z,42.805,6.029,13.3015,4.60064,2470.194,2022-1-22T13:29:14Z
2022-01-22T11:30:45Z,42.805,6.029,13.3019,4.60066,2470.194,2022-1-22T13:32:17Z
2022-01-22T11:33:48Z,42.805,6.029,13.3015,4.60057,2470.133,2022-1-22T13:35:20Z
2022-01-22T11:36:51Z,42.805,6.029,13.3007,4.60048,2470.133,2022-1-22T13:38:23Z
2022-01-22T11:39:55Z,42.805,6.029,13.3004,4.60039,2470.133,2022-1-22T13:41:26Z
2022-01-22T11:42:58Z,42.805,6.029,13.3014,4.60057,2470.11,2022-1-22T13:44:29Z
2022-01-22T11:46:01Z,42.805,6.029,13.3009,4.60054,2470.133,2022-1-22T13:47:32Z
2022-01-22T11:49:04Z,42.805,6.029,13.3006,4.60039,2470.133,2022-1-22T13:50:36Z
2022-01-22T11:52:07Z,42.805,6.029,13.3006,4.60043,2470.11,2022-1-22T13:53:39Z
2022-01-22T11:55:10Z,42.805,6.029,13.3005,4.60041,2470.1,2022-1-22T13:56:42Z
2022-01-22T11:58:13Z,42.805,6.029,13.3011,4.60044,2470.133,2022-1-22T13:59:45Z
2022-01-22T12:01:16Z,42.805,6.029,13.3006,4.60050,2470.133,2022-1-22T14:02:48Z
2022-01-22T12:04:20Z,42.805,6.029,13.3008,4.60041,2470.11,2022-1-22T14:05:51Z
2022-01-22T12:07:23Z,42.805,6.029,13.3009,4.60047,2470.087,2022-1-22T14:08:54Z
2022-01-22T12:10:26Z,42.805,6.029,13.3006,4.60057,2470.087,2022-1-22T14:11:57Z
2022-01-22T12:13:29Z,42.805,6.029,13.3015,4.60045,2470.087,2022-1-22T14:15:01Z
2022-01-22T12:16:32Z,42.805,6.029,13.3007,4.60067,2470.1,2022-1-22T14:18:04Z
2022-01-22T12:19:35Z,42.805,6.029,13.3000,4.60045,2470.087,2022-1-22T14:21:07Z
2022-01-22T12:22:38Z,42.805,6.029,13.3012,4.60049,2470.077,2022-1-22T14:24:10Z
2022-01-22T12:25:41Z,42.805,6.029,13.3009,4.60041,2470.087,2022-1-22T14:27:13Z
2022-01-22T12:28:45Z,42.805,6.029,13.3021,4.60059,2470.077,2022-1-22T14:30:16Z
2022-01-22T12:31:48Z,42.805,6.029,13.3011,4.60072,2470.063,2022-1-22T14:33:19Z
2022-01-22T12:34:51Z,42.805,6.029,13.3007,4.60049,2470.063,2022-1-22T14:36:22Z
2022-01-22T12:37:54Z,42.805,6.029,13.3015,4.60064,2470.063,2022-1-22T14:39:26Z
2022-01-22T12:40:57Z,42.805,6.029,13.3004,4.60043,2470.03,2022-1-22T14:42:29Z
2022-01-22T12:44:00Z,42.805,6.029,13.3014,4.60049,2470.077,2022-1-22T14:45:32Z
2022-01-22T12:47:03Z,42.805,6.029,13.3009,4.60044,2470.063,2022-1-22T14:48:35Z
2022-01-22T12:50:07Z,42.805,6.029,13.3004,4.60041,2470.017,2022-1-22T14:51:38Z
2022-01-22T12:53:10Z,42.805,6.029,13.3016,4.60059,2470.053,2022-1-22T14:54:41Z
2022-01-22T12:56:13Z,42.805,6.029,13.3008,4.60044,2470.04,2022-1-22T14:57:44Z
2022-01-22T12:59:16Z,42.805,6.029,13.3006,4.60053,2470.03,2022-1-22T15:00:48Z
2022-01-22T13:02:19Z,42.805,6.029,13.3012,4.60044,2470.017,2022-1-22T15:03:51Z
2022-01-22T13:05:22Z,42.805,6.029,13.3007,4.60040,2470.04,2022-1-22T15:06:54Z
2022-01-22T13:08:25Z,42.805,6.029,13.3002,4.60037,2470.017,2022-1-22T15:09:57Z
2022-01-22T13:11:28Z,42.805,6.029,13.3006,4.60036,2470.017,2022-1-22T15:13:00Z
2022-01-22T13:14:32Z,42.805,6.029,13.3001,4.60037,2469.993,2022-1-22T15:16:03Z
2022-01-22T13:17:35Z,42.805,6.029,13.3014,4.60054,2469.984,2022-1-22T15:19:06Z
2022-01-22T13:20:38Z,42.805,6.029,13.3011,4.60051,2469.97,2022-1-22T15:22:09Z
2022-01-22T13:23:41Z,42.805,6.029,13.3013,4.60069,2469.984,2022-1-22T15:25:13Z
2022-01-22T13:26:44Z,42.805,6.029,13.3015,4.60046,2470.017,2022-1-22T15:28:16Z
2022-01-22T13:29:47Z,42.805,6.029,13.3006,4.60049,2469.993,2022-1-22T15:31:19Z
2022-01-22T13:32:50Z,42.805,6.029,13.3006,4.60052,2469.993,2022-1-22T15:34:22Z
2022-01-22T13:35:53Z,42.805,6.029,13.3007,4.60046,2469.97,2022-1-22T15:37:25Z
2022-01-22T13:38:57Z,42.805,6.029,13.3004,4.60054,2469.993,2022-1-22T15:40:28Z
2022-01-22T13:42:00Z,42.805,6.029,13.3008,4.60057,2469.993,2022-1-22T15:43:31Z
2022-01-22T13:45:03Z,42.805,6.029,13.3003,4.60049,2469.97,2022-1-22T15:46:34Z
2022-01-22T13:48:06Z,42.805,6.029,13.3009,4.60058,2469.97,2022-1-22T15:49:38Z
2022-01-22T13:51:09Z,42.805,6.029,13.3009,4.60046,2469.97,2022-1-22T15:52:41Z
2022-01-22T13:54:12Z,42.805,6.029,13.3005,4.60043,2469.984,2022-1-22T15:55:44Z
2022-01-22T13:57:15Z,42.805,6.029,13.3004,4.60044,2469.984,2022-1-22T15:58:47Z
2022-01-22T14:00:18Z,42.805,6.029,13.3004,4.60040,2469.993,2022-1-22T16:01:50Z
2022-01-22T14:03:22Z,42.805,6.029,13.3004,4.60036,2469.984,2022-1-22T16:04:53Z
2022-01-22T14:06:25Z,42.805,6.029,13.3009,4.60050,2469.947,2022-1-22T16:07:56Z
2022-01-22T14:09:28Z,42.805,6.029,13.3011,4.60058,2470.017,2022-1-22T16:10:59Z
2022-01-22T14:12:31Z,42.805,6.029,13.3005,4.60046,2470.007,2022-1-22T16:14:03Z
2022-01-22T14:15:34Z,42.805,6.029,13.3009,4.60038,2470.04,2022-1-22T16:17:06Z
2022-01-22T14:18:37Z,42.805,6.029,13.3010,4.60040,2470.04,2022-1-22T16:20:09Z
2022-01-22T14:21:40Z,42.805,6.029,13.3004,4.60036,2470.007,2022-1-22T16:23:12Z
2022-01-22T14:24:43Z,42.805,6.029,13.3003,4.60040,2469.993,2022-1-22T16:26:15Z
2022-01-22T14:27:47Z,42.805,6.029,13.3006,4.60054,2469.993,2022-1-22T16:29:18Z
2022-01-22T14:30:50Z,42.805,6.029,13.3005,4.60039,2470.03,2022-1-22T16:32:21Z
2022-01-22T14:33:53Z,42.805,6.029,13.3006,4.60051,2469.97,2022-1-22T16:35:24Z
2022-01-22T14:36:56Z,42.805,6.029,13.3007,4.60041,2469.96,2022-1-22T16:38:28Z
2022-01-22T14:39:59Z,42.805,6.029,13.3004,4.60044,2469.97,2022-1-22T16:41:31Z
2022-01-22T14:43:02Z,42.805,6.029,13.3014,4.60052,2469.96,2022-1-22T16:44:34Z
2022-01-22T14:46:05Z,42.805,6.029,13.3006,4.60041,2469.947,2022-1-22T16:47:37Z
2022-01-22T14:49:08Z,42.805,6.029,13.3003,4.60035,2469.909,2022-1-22T16:50:40Z
2022-01-22T14:52:12Z,42.805,6.029,13.3009,4.60052,2469.96,2022-1-22T16:53:43Z
2022-01-22T14:55:15Z,42.805,6.029,13.3011,4.60064,2469.96,2022-1-22T16:56:46Z
2022-01-22T14:58:18Z,42.805,6.029,13.3011,4.60047,2469.923,2022-1-22T16:59:49Z
2022-01-22T15:01:21Z,42.805,6.029,13.3005,4.60044,2469.947,2022-1-22T17:02:53Z
2022-01-22T15:04:24Z,42.805,6.029,13.3007,4.60040,2469.923,2022-1-22T17:05:56Z
2022-01-22T15:07:27Z,42.805,6.029,13.3005,4.60040,2469.923,2022-1-22T17:08:59Z
2022-01-22T15:10:30Z,42.805,6.029,13.3011,4.60056,2469.937,2022-1-22T17:12:02Z
2022-01-22T15:13:33Z,42.805,6.029,13.3002,4.60055,2469.984,2022-1-22T17:15:05Z